Hollywood, New Mexico
Current Conditions -  °F | °C
As of 6:35 PM on Wednesday 26 Nov 2014 (Local Time) from KSRR Reporting Station
Clear Clear  
Wind Chill: 42°   Ceiling: Unl
Heat Index: 48°   Visibility: 10mi
Dew Point: 19°   Wind: 17mph
Humidity: 32%   Direction: 300°WNW
Pressure: 30.38"   Gusts: 22mph
Location:  33.3909°N, 105.634°W
Report Text: KSRR 270135Z AUTO 30015G19KT 10SM CLR 09/M07 A3038 RMK AO2
Loading
Personal Weather Stations






























Interactive Weather Map New forecast layout! Learn more

10-Day Weather Forecast

Advertisements
Track Severe Weather on mobile